Home > Weather > Ajax > Past weeks

Flag for Canada Weather for the Past 2 Weeks in Ajax, Ontario, Canada

Now
16 °F

Partly sunny.


Feels Like: 3 °F
Forecast: 8 / 24 °F
Wind: 10 mph from Southwest

Location: Toronto Buttonville

Current Time: Feb 12, 2016 at 10:00:40 AM

Latest Report: Feb 12, 2016 at 9:00 AM


Visibility: 15 mi

Pressure: 30.00 "Hg

Humidity: 67%

Dew point: 7 °F

Location of AjaxLocation

Historic Weather in Ajax — Graph

°F

Ajax Temperature Yesterday

Maximum temperature yesterday: 12 °F (at 3:00 PM)
Minimum temperature yesterday: 0 °F (at 7:00 AM)
Average temperature yesterday: 6 °F

High & Low Weather Summary for the Past Weeks

 TemperatureHumidityPressure
High59 °F (Feb 3, 3:00 PM)100% (Jan 31, 6:00 PM)30.36 "Hg (Jan 31, 6:00 PM)
Low0 °F (Feb 11, 7:00 AM)34% (Feb 3, 4:00 PM)29.44 "Hg (Feb 1, 12:00 AM)
Average30 °F74%29.87 "Hg
* Reported Jan 28 9:00 AM — Feb 12 9:00 AM, Ajax, Weather by CustomWeather, © 2016

Note: Actual official high and low records may vary slightly from our data, if they occured in-between our weather recording intervals... More about our weather records

Advertising

Ajax Weather History for the Previous 24 Hours

 ConditionsComfort  
Time TempWeatherWind HumidityBarometerVisibility
9:00 AM
Fri, Feb 12
16 °FPartly sunny.10 mph67%30.00 "Hg15 mi
8:00 AM16 °FOvercast.8 mph67%30.02 "Hg15 mi
7:00 AM14 °FPassing clouds.7 mph67%30.04 "Hg15 mi
6:00 AM12 °FPassing clouds.12 mph73%30.05 "Hg15 mi
5:00 AM12 °FPassing clouds.12 mph67%30.07 "Hg15 mi
4:00 AM12 °FPassing clouds.13 mph67%30.09 "Hg15 mi
3:00 AM12 °FPassing clouds.15 mph67%30.12 "Hg15 mi
2:00 AM12 °FPassing clouds.12 mph67%30.14 "Hg15 mi
1:00 AM10 °FPassing clouds.8 mph79%30.16 "Hg15 mi
12:00 AM9 °FPassing clouds.3 mph78%30.18 "Hg15 mi
11:00 PM
Thu, Feb 11
7 °FPassing clouds.5 mph72%30.21 "Hg15 mi
10:00 PM7 °FPassing clouds.8 mph72%30.21 "Hg15 mi
9:00 PM7 °FClear.6 mph66%30.22 "Hg15 mi
8:00 PM7 °FClear.7 mph61%30.22 "Hg15 mi
7:00 PM9 °FClear.12 mph51%30.22 "Hg15 mi
6:00 PM9 °FPassing clouds.8 mph51%30.19 "Hg15 mi
5:00 PM10 °FPassing clouds.15 mph47%30.17 "Hg15 mi
4:00 PM10 °FPassing clouds.14 mph52%30.15 "Hg15 mi
3:00 PM12 °FLight mixture of precip. Partly sunny.15 mph52%30.12 "Hg13 mi
2:00 PM10 °FPassing clouds.13 mph56%30.11 "Hg15 mi
1:00 PM9 °FPassing clouds.14 mph56%30.10 "Hg15 mi
12:00 PM7 °FPassing clouds.14 mph56%30.09 "Hg15 mi
11:00 AM5 °FPassing clouds.14 mph55%30.08 "Hg15 mi
10:00 AM1 °FPassing clouds.12 mph65%30.07 "Hg15 mi
Weather by CustomWeather, © 2016

See weather overviewHow to use our weather pages